Weather History for Quincy Muni, Quincy, FL, FL

Change the Weather History Date:

Thursday, March 13, 2014

  Actual Average (KTLH) Record (KTLH)
Temperature  
Mean Temperature 50 °F 60 °F  
Max Temperature 60 °F 73 °F 87 °F (1982)
Min Temperature 39 °F 47 °F 23 °F (1998)
Degree Days  
Heating Degree Days 16    
Month to date heating degree days  
Since 1 July heating degree days  
Cooling Degree Days 0    
Month to date cooling degree days  
Year to date cooling degree days  
Moisture  
Dew Point 29 °F    
Average Humidity 49    
Maximum Humidity 87    
Minimum Humidity 27    
Precipitation  
Precipitation 0.00 in 0.22 in 1.96 in (1901)
Month to date precipitation 2.75  
Year to date precipitation 11.94  
Sea Level Pressure  
Sea Level Pressure 30.17 in    
Wind  
Wind Speed 9 mph (NW)    
Max Wind Speed 16 mph    
Max Gust Speed 29 mph    
Visibility 10 miles    
Events      
T = Trace of Precipitation, MM = Missing Value Source: NWS Daily Summary

Daily Weather History Graph

Daily Weather History Graph

Search for Another Location

Airport:

Trip Planner

Search our weather history database for the weather conditions in past years. The results will help you decide how hot, cold, wet, or windy it might be!

Date:

Astronomy

Mar. 13, 2014 Rise Set
Actual Time 7:50 AM EDT 7:45 PM EDT
Civil Twilight 7:26 AM EDT 8:09 PM EDT
Nautical Twilight 6:58 AM EDT 8:37 PM EDT
Astronomical Twilight 6:30 AM EDT 9:05 PM EDT
Moon 5:18 PM EDT (3/13) 5:47 AM EDT (3/13)
Length of Visible Light 12h 42m
Length of Day
11h 54m
Waxing Gibbous, 91% of the Moon is Illuminated
Mar 13
Waxing Gibbous
Mar 16
Full
Mar 23
Last Quarter
Mar 30
New
Apr 7
First Quarter

Hourly Weather History & Observations

Time (EDT) Temp. Windchill Dew Point Humidity Pressure Visibility Wind Dir Wind Speed Gust Speed Precip Events Conditions
12:15 AM 48.2 °F - 33.8 °F 58% 30.01 in 10.0 mi NW 9.2 mph 17.3 mph N/A   Clear
12:35 AM 48.2 °F - 32.0 °F 54% 30.01 in 10.0 mi NW 9.2 mph 17.3 mph N/A   Clear
12:55 AM 48.2 °F - 32.0 °F 54% 30.02 in 10.0 mi NW 10.4 mph 19.6 mph N/A   Clear
1:15 AM 48.2 °F - 32.0 °F 54% 30.02 in 10.0 mi NW 9.2 mph 18.4 mph N/A   Clear
1:35 AM 48.2 °F - 32.0 °F 54% 30.03 in 10.0 mi NNW 15.0 mph 21.9 mph N/A   Clear
1:55 AM 46.4 °F 42.4 °F 32.0 °F 57% 30.03 in 10.0 mi NNW 8.1 mph 20.7 mph N/A   Clear
2:15 AM 46.4 °F 42.4 °F 32.0 °F 57% 30.04 in 10.0 mi NNW 8.1 mph 18.4 mph N/A   Clear
2:35 AM 46.4 °F 40.4 °F 32.0 °F 57% 30.05 in 10.0 mi NW 13.8 mph 20.7 mph N/A   Clear
2:55 AM 46.4 °F 41.9 °F 30.2 °F 53% 30.06 in 10.0 mi NW 9.2 mph 17.3 mph N/A   Clear
3:15 AM 44.6 °F 38.8 °F 30.2 °F 57% 30.06 in 10.0 mi NW 11.5 mph 18.4 mph N/A   Clear
3:35 AM 44.6 °F 39.7 °F 30.2 °F 57% 30.07 in 10.0 mi NNW 9.2 mph 17.3 mph N/A   Clear
3:55 AM 44.6 °F 39.7 °F 28.4 °F 53% 30.07 in 10.0 mi NW 9.2 mph 16.1 mph N/A   Partly Cloudy
4:15 AM 44.6 °F 39.2 °F 28.4 °F 53% 30.08 in 10.0 mi NW 10.4 mph 17.3 mph N/A   Partly Cloudy
4:35 AM 44.6 °F 40.2 °F 28.4 °F 53% 30.09 in 10.0 mi NW 8.1 mph - N/A   Clear
4:55 AM 42.8 °F 37.0 °F 28.4 °F 57% 30.10 in 10.0 mi NW 10.4 mph 16.1 mph N/A   Clear
5:15 AM 42.8 °F 38.0 °F 28.4 °F 57% 30.10 in 10.0 mi NW 8.1 mph 16.1 mph N/A   Clear
5:35 AM 42.8 °F 36.6 °F 28.4 °F 57% 30.11 in 10.0 mi NNW 11.5 mph 18.4 mph N/A   Clear
5:55 AM 41.0 °F 35.2 °F 28.4 °F 61% 30.12 in 10.0 mi NW 9.2 mph 16.1 mph N/A   Clear
6:15 AM 41.0 °F 35.2 °F 28.4 °F 61% 30.13 in 10.0 mi NW 9.2 mph - N/A   Clear
6:35 AM 41.0 °F 35.8 °F 26.6 °F 57% 30.14 in 10.0 mi NNW 8.1 mph - N/A   Clear
6:55 AM 41.0 °F 36.4 °F 26.6 °F 57% 30.15 in 10.0 mi NW 6.9 mph - N/A   Clear
7:15 AM 41.0 °F 35.8 °F 26.6 °F 57% 30.16 in 10.0 mi NNW 8.1 mph - N/A   Clear
7:35 AM 39.2 °F 35.0 °F 26.6 °F 61% 30.16 in 10.0 mi NW 5.8 mph - N/A   Clear
7:55 AM 39.2 °F 34.2 °F 26.6 °F 61% 30.17 in 10.0 mi NNW 6.9 mph - N/A   Clear
8:15 AM 39.2 °F 34.2 °F 26.6 °F 61% 30.18 in 10.0 mi NW 6.9 mph - N/A   Clear
8:35 AM 41.0 °F 36.4 °F 26.6 °F 57% 30.19 in 10.0 mi NW 6.9 mph - N/A   Clear
8:55 AM 41.0 °F 34.7 °F 24.8 °F 53% 30.20 in 10.0 mi NNW 10.4 mph 16.1 mph N/A   Clear
9:15 AM 44.6 °F 38.8 °F 24.8 °F 46% 30.21 in 10.0 mi NNW 11.5 mph 18.4 mph N/A   Clear
9:35 AM 44.6 °F 39.7 °F 24.8 °F 46% 30.22 in 10.0 mi NW 9.2 mph - N/A   Clear
9:55 AM 44.6 °F 38.4 °F 23.0 °F 43% 30.23 in 10.0 mi North 12.7 mph 28.8 mph N/A   Clear
10:15 AM 46.4 °F 40.4 °F 23.0 °F 40% 30.23 in 10.0 mi NNW 13.8 mph 23.0 mph N/A   Clear
10:35 AM 48.2 °F - 24.8 °F 40% 30.23 in 10.0 mi NNW 15.0 mph 21.9 mph N/A   Clear
10:55 AM 48.2 °F - 24.8 °F 40% 30.23 in 10.0 mi NNW 6.9 mph 20.7 mph N/A   Clear
11:15 AM 50.0 °F - 24.8 °F 37% 30.23 in 10.0 mi North 12.7 mph 21.9 mph N/A   Clear
11:35 AM 50.0 °F - 24.8 °F 37% 30.23 in 10.0 mi NW 16.1 mph 20.7 mph N/A   Clear
11:55 AM 51.8 °F - 24.8 °F 35% 30.23 in 10.0 mi NW 12.7 mph 20.7 mph N/A   Clear
12:15 PM 53.6 °F - 24.8 °F 33% 30.23 in 10.0 mi NW 10.4 mph 18.4 mph N/A   Clear
12:35 PM 53.6 °F - 26.6 °F 35% 30.23 in 10.0 mi NW 11.5 mph 17.3 mph N/A   Clear
12:55 PM 53.6 °F - 26.6 °F 35% 30.23 in 10.0 mi NW 10.4 mph 17.3 mph N/A   Clear
1:15 PM 55.4 °F - 26.6 °F 33% 30.23 in 10.0 mi North 8.1 mph 16.1 mph N/A   Clear
1:35 PM 55.4 °F - 26.6 °F 33% 30.22 in 10.0 mi NNW 8.1 mph - N/A   Clear
1:55 PM 57.2 °F - 26.6 °F 31% 30.21 in 10.0 mi NW 10.4 mph - N/A   Clear
2:15 PM 57.2 °F - 24.8 °F 29% 30.20 in 10.0 mi NNW 8.1 mph 18.4 mph N/A   Clear
2:35 PM 59.0 °F - 26.6 °F 29% 30.19 in 10.0 mi WNW 10.4 mph - N/A   Clear
2:55 PM 59.0 °F - 26.6 °F 29% 30.18 in 10.0 mi NW 9.2 mph - N/A   Clear
3:15 PM 59.0 °F - 26.6 °F 29% 30.18 in 10.0 mi NNW 6.9 mph 16.1 mph N/A   Clear
3:35 PM 59.0 °F - 26.6 °F 29% 30.18 in 10.0 mi NNW 6.9 mph - N/A   Clear
3:55 PM 59.0 °F - 26.6 °F 29% 30.18 in 10.0 mi NW 10.4 mph 16.1 mph N/A   Clear
4:15 PM 60.8 °F - 28.4 °F 29% 30.18 in 10.0 mi NNW 11.5 mph - N/A   Clear
4:35 PM 60.8 °F - 26.6 °F 27% 30.17 in 10.0 mi NW 8.1 mph 18.4 mph N/A   Clear
4:55 PM 60.8 °F - 26.6 °F 27% 30.17 in 10.0 mi WNW 4.6 mph - N/A   Clear
5:15 PM 60.8 °F - 28.4 °F 29% 30.17 in 10.0 mi NW 6.9 mph - N/A   Clear
5:35 PM 59.0 °F - 26.6 °F 29% 30.18 in 10.0 mi NW 6.9 mph 17.3 mph N/A   Clear
5:55 PM 59.0 °F - 26.6 °F 29% 30.18 in 10.0 mi NW 8.1 mph - N/A   Clear
6:15 PM 59.0 °F - 26.6 °F 29% 30.18 in 10.0 mi NW 9.2 mph - N/A   Clear
6:35 PM 59.0 °F - 26.6 °F 29% 30.19 in 10.0 mi NW 8.1 mph - N/A   Clear
6:55 PM 59.0 °F - 26.6 °F 29% 30.19 in 10.0 mi North 4.6 mph - N/A   Clear
7:15 PM 57.2 °F - 28.4 °F 33% 30.20 in 10.0 mi Calm Calm - N/A   Clear
7:35 PM 55.4 °F - 28.4 °F 36% 30.21 in 10.0 mi Calm Calm - N/A   Clear
7:55 PM 51.8 °F - 32.0 °F 47% 30.21 in 10.0 mi Calm Calm - N/A   Clear
8:15 PM 50.0 °F - 35.6 °F 58% 30.22 in 10.0 mi Calm Calm - N/A   Clear
8:35 PM 48.2 °F - 35.6 °F 62% 30.22 in 10.0 mi Calm Calm - N/A   Clear
8:55 PM 46.4 °F - 35.6 °F 66% 30.23 in 10.0 mi Calm Calm - N/A   Clear
9:15 PM 46.4 °F - 35.6 °F 66% 30.24 in 10.0 mi Calm Calm - N/A   Clear
9:35 PM 44.6 °F - 35.6 °F 71% 30.25 in 10.0 mi Calm Calm - N/A   Clear
9:55 PM 42.8 °F - 35.6 °F 76% 30.26 in 10.0 mi Calm Calm - N/A   Clear
10:15 PM 42.8 °F - 35.6 °F 76% 30.26 in 10.0 mi Calm Calm - N/A   Clear
10:35 PM 41.0 °F - 35.6 °F 81% 30.27 in 10.0 mi Calm Calm - N/A   Clear
10:55 PM 41.0 °F - 35.6 °F 81% 30.27 in 10.0 mi Calm Calm - N/A   Clear
11:15 PM 39.2 °F - 35.6 °F 87% 30.27 in 10.0 mi Calm Calm - N/A   Clear
11:35 PM 39.2 °F - 35.6 °F 87% 30.28 in 10.0 mi Calm Calm - N/A   Scattered Clouds
11:55 PM 39.2 °F - 35.6 °F 87% 30.28 in 10.0 mi Calm Calm - N/A   Overcast